Regional Weather Roundup
Issued by NWS Mt. Holly, NJ

Home | Current Version | Previous Version | Text Only | Print | Product List | Glossary On
Versions: 1 2 3 4 5 6 7 8 9 10 11 12 13 14 15 16 17 18 19 20 21 22 23 24 25 26 27
000
ASUS41 KPHI 232112
RWRPHI

REGIONAL WEATHER ROUNDUP
NATIONAL WEATHER SERVICE MOUNT HOLLY NJ
500 PM EDT TUE AUG 23 2016

NOTE:  "FAIR" INDICATES FEW OR NO CLOUDS BELOW 12,000 FEET WITH NO
SIGNIFICANT WEATHER AND/OR OBSTRUCTIONS TO VISIBILITY.

 * = STATION DOES NOT REPORT PRECIPITATION (E.G. RAIN, SNOW, ETC.)
        OR FOG.

NJZ015>026-232200-
SOUTHERN NEW JERSEY

CITY           SKY/WX    TMP DP  RH WIND       PRES   REMARKS
POMONA         SUNNY     78  54  43 S8        30.28F
WILDWOOD*        N/A     78  54  43 SW6       30.30S
MILLVILLE      SUNNY     80  58  46 W7        30.28S
WRIGHTSTOWN    SUNNY     80  56  42 VRB5      30.24S
MOUNT HOLLY    SUNNY     82  49  31 VRB3      30.26
TRENTON        SUNNY     82  53  36 N10       30.26F

$$
NJZ001>014-232200-
NORTHERN NEW JERSEY

CITY           SKY/WX    TMP DP  RH WIND       PRES   REMARKS
SUSSEX         MOSUNNY   80  57  45 VRB5      30.26F
ANDOVER*         N/A     78  56  46 VRB6      30.27F
MORRISTOWN     MOSUNNY   81  55  41 W12       30.26F
NEWARK         MOSUNNY   83  51  33 W10       30.25S
TETERBORO      SUNNY     82  51  34 SW8       30.24S
CALDWELL       MOSUNNY   82  54  37 VRB7      30.26F
SOMERVILLE     SUNNY     81  55  40 VRB5      30.25F
ALLAIRE*       SUNNY     77  56  48 SE10      30.28F
TOMS RIVER*    SUNNY     78  59  51 SE9       30.27F

$$
PAZ043-044-047-054-055-060>062-066>071-232200-
EASTERN PENNSYLVANIA

CITY           SKY/WX    TMP DP  RH WIND       PRES   REMARKS
PHILADELPHIA   MOSUNNY   82  52  35 SW9       30.27F
NORTH PHILA    SUNNY     83  52  34 W5        30.28S
BLUE BELL*     SUNNY     79  54  41 W6        30.27S
DOYLESTOWN     SUNNY     83  54  36 NW5       30.27S
QUAKERTOWN*    SUNNY     81  52  36 CALM      30.29S
POTTSTOWN      SUNNY     80  54  40 NW3       30.29F
LANCASTER      MOSUNNY   81  59  47 W5        30.28F
COATESVILLE    SUNNY     79  55  44 VRB5      30.31S
READING        MOSUNNY   80  55  42 W6        30.26F
ALLENTOWN      SUNNY     80  54  40 NW6       30.27F
MOUNT POCONO   SUNNY     73  50  44 W9        30.32F
WILKES BARRE   SUNNY     79  51  37 W12       30.28F

$$
DEZALL-MDZ008-012-015-019-020-232200-
DELAWARE AND EASTERN MARYLAND

CITY           SKY/WX    TMP DP  RH WIND       PRES   REMARKS
WILMINGTON     SUNNY     82  53  36 NW8       30.28F
DOVER          SUNNY     80  62  53 VRB3      30.27F
GEORGETOWN     SUNNY     80  54  40 NE7       30.29F
EASTON         SUNNY     82  63  51 NW6       30.32F
ABERDEEN       MOSUNNY   81  57  44 SW7       30.27F
PATUXENT       MOSUNNY   80  54  40 E8        30.28F
OCEAN CITY     SUNNY     77  55  46 E8        30.29F
WALLOPS ISLAND SUNNY     78  54  43 E10       30.29F
CAMBRIDGE      SUNNY     79  54  41 CALM      30.28F
SALISBURY      SUNNY     81  55  40 NW5       30.28F

$$
PAZ001-021-NYZ056-072-MDZ011-DCZ001-232200-
OTHER NEARBY LOCATIONS

CITY           SKY/WX    TMP DP  RH WIND       PRES   REMARKS
HARRISBURG     MOSUNNY   83  58  42 CALM      30.26F
STATE COLLEGE  SUNNY     79  59  50 SW6       30.29F
WILLIAMSPORT   SUNNY     81  57  43 S5        30.25F
BINGHAMTON     SUNNY     74  53  48 W8        30.29F
NEW YORK CITY  SUNNY     80  55  42 VRB3      30.28S
BALTIMORE      MOSUNNY   81  59  47 E6        30.27F
WASHINGTON DC  MOSUNNY   83  58  42 SE3       30.27F

$$




USA.gov is the U.S. government's official web portal to all federal, state and local government web resources and services.